Location: Roland
(31.1349°N, 85.4372°W)
Time: 04:25:05
(UTC+00:00)

Transit 4A - All Passes

Search period start: 14 April 2021 00:00
Search period end: 24 April 2021 00:00
Orbit: 869 x 976 km, 66.8° (Epoch: 13 April)

Date Brightness Start Highest point End Pass type
(mag) Time Alt. Az. Time Alt. Az. Time Alt. Az.
14 Apr - 05:04:56 10° S 05:10:29 33° ESE 05:15:58 10° NE visible
14 Apr - 06:51:07 10° WSW 06:56:44 33° WNW 07:02:16 10° N visible
14 Apr - 14:14:52 10° NNE 14:17:44 14° NE 14:20:35 10° E daylight
14 Apr - 15:58:51 10° NNW 16:04:42 78° WSW 16:10:29 10° SSE daylight
15 Apr - 05:13:34 10° S 05:19:40 52° ESE 05:25:40 10° NE visible
15 Apr - 07:01:28 10° WSW 07:06:15 22° NW 07:10:59 10° N visible
15 Apr - 14:23:01 10° N 14:27:22 21° NE 14:31:39 10° ESE daylight
15 Apr - 16:08:20 10° NW 16:13:55 48° WSW 16:19:26 10° S daylight
16 Apr - 05:22:35 10° SSW 05:28:55 81° ESE 05:35:07 10° NNE visible
16 Apr - 07:12:29 10° W 07:15:52 15° NW 07:19:14 10° NNW visible
16 Apr - 14:31:41 10° N 14:36:53 32° ENE 14:42:00 10° ESE daylight
16 Apr - 16:18:05 10° NW 16:23:04 30° WSW 16:28:00 10° SSW daylight
17 Apr - 03:49:04 10° SE 03:52:28 15° ESE 03:55:50 10° ENE night (unlit)
17 Apr - 05:31:56 10° SW 05:38:13 67° WNW 05:44:22 10° NNE visible
17 Apr - 14:40:38 10° NNW 14:46:18 49° ENE 14:51:54 10° SE daylight
17 Apr - 16:28:18 10° WNW 16:32:08 18° WSW 16:35:57 10° SSW daylight
18 Apr - 03:56:36 10° SSE 04:01:33 25° ESE 04:06:25 10° NE visible
18 Apr - 05:41:38 10° SW 05:47:35 43° WNW 05:53:27 10° N visible
18 Apr - 13:08:03 10° NE 13:08:24 10° NE 13:08:44 10° NE daylight
18 Apr - 14:49:47 10° NNW 14:55:39 79° ENE 15:01:26 10° SSE daylight
18 Apr - 16:40:23 10° W 16:41:10 10° WSW 16:41:57 10° WSW daylight
19 Apr - 04:04:55 10° S 04:10:41 39° ESE 04:16:22 10° NE visible
19 Apr - 05:51:42 10° WSW 05:57:03 29° WNW 06:02:19 10° N visible
19 Apr - 13:14:36 10° NNE 13:18:05 16° NE 13:21:33 10° E daylight
19 Apr - 14:59:07 10° NNW 15:04:54 66° WSW 15:10:37 10° SSE daylight
20 Apr - 04:13:41 10° S 04:19:53 61° ESE 04:25:58 10° NNE visible
20 Apr - 06:02:15 10° W 06:06:35 19° NW 06:10:54 10° N visible
20 Apr - 13:22:59 10° N 13:27:41 24° NE 13:32:18 10° ESE daylight
20 Apr - 15:08:41 10° NW 15:14:05 40° WSW 15:19:27 10° S daylight
21 Apr - 02:42:39 10° ESE 02:43:35 10° ESE 02:44:31 10° E night (unlit)
21 Apr - 04:22:48 10° SSW 04:29:09 87° WNW 04:35:21 10° NNE visible
21 Apr - 06:13:40 10° WNW 06:16:15 13° NW 06:18:49 10° NNW visible
21 Apr - 13:31:46 10° N 13:37:09 37° ENE 13:42:28 10° SE daylight
21 Apr - 15:18:34 10° NW 15:23:12 25° WSW 15:27:50 10° SSW daylight
22 Apr - 02:48:33 10° SE 02:52:37 18° ESE 02:56:39 10° ENE night (unlit)
22 Apr - 04:32:17 10° SW 04:38:28 57° WNW 04:44:32 10° NNE visible
22 Apr - 13:40:48 10° NNW 13:46:33 58° ENE 13:52:14 10° SE daylight
22 Apr - 15:29:05 10° WNW 15:32:16 15° WSW 15:35:27 10° SW daylight
23 Apr - 02:56:26 10° SSE 03:01:43 29° ESE 03:06:56 10° NE visible
23 Apr - 04:42:07 10° SW 04:47:52 37° WNW 04:53:32 10° N visible
23 Apr - 12:06:37 10° NNE 12:08:46 12° NE 12:10:54 10° ENE daylight
23 Apr - 13:50:00 10° NNW 13:55:51 89° WSW 14:01:39 10° SSE daylight
